Find Starlink 34738

NORAD ID: 64951 Int'l Des: 2025-158 Owner: SPXS Country: US Constellation: starlink operational
LEOCIRCULARRETROGRADESSO

Live Position

Loading 3D Globe...

About Starlink 34738

Description loading...

Upcoming Passes

Passes for default location (London). Set your location on the main map for personalized predictions.

Altitude History

Loading altitude history...

Two-Line Element Set

1 64951U 25158V 26109.85860882 -.00000391 00000-0 -22898-4 0 9997
2 64951 97.6014 334.7112 0002064 90.1030 270.0433 15.05636552 41552
Epoch: Apr 19, 2026 • Age: 7 hours

Current Status

Altitude 552.7 km
Velocity 7.59 km/s
Sub-Earth Point 29.73°N, 103.66°W
Launch Date Jul 27, 2025
Age 0.7 years
Type internet

Technical Details

Classification Payload
Mass 575.00 kg
Dry Mass 530.00 kg
Total Mass 575.00 kg
Length 0.30 m
Diameter 4.10 m
Span 29.00 m
Shape Box + pan
Manufacturer SPXS
Bus Type Starlink V2MO
Phase Status In Orbit
Owner/State SPXS/US

Most Searched